DW7447 Weather Reports


Display with metric or nautical units.
time (UTC)temp
F
wind
direction
speed
MPH
gust
MPH
rain 1hr
in
rain 24hr
in
rain mn
in
humidity
%
barometer
mb
20260831212632 53 257 7.0 12.0 0.00 0.02 0.02 80 1015.2
20260831212133 53 237 5.0 11.0 0.00 0.02 0.02 79 1015.2
20260831211633 53 251 5.0 11.0 0.00 0.02 0.02 79 1015.2
20260831210631 54 261 2.0 9.0 0.00 0.02 0.02 80 1015.2
20260831210131 54 261 4.0 9.0 0.00 0.02 0.02 80 1015.1
20260831205633 54 248 2.0 8.0 0.00 0.02 0.02 80 1015.0
20260831205132 54 224 3.0 8.0 0.00 0.02 0.02 79 1014.9
20260831204631 54 230 3.0 8.0 0.00 0.02 0.02 79 1014.8
20260831204132 54 212 4.0 8.0 0.00 0.02 0.02 79 1014.8
20260831203630 54 224 3.0 8.0 0.00 0.02 0.02 80 1014.8
20260831203132 55 262 5.0 8.0 0.00 0.02 0.02 80 1014.7
20260831201632 55 193 4.0 8.0 0.00 0.06 0.02 79 1014.8
20260831200631 55 243 4.0 8.0 0.00 0.08 0.02 80 1014.6
20260831200132 55 255 4.0 8.0 0.00 0.09 0.02 80 1014.6
20260831195133 56 221 4.0 7.0 0.00 0.12 0.02 79 1014.3
20260831194632 56 257 3.0 8.0 0.00 0.13 0.02 79 1014.2
20260831194132 56 237 4.0 8.0 0.00 0.13 0.02 77 1014.2
20260831193631 56 233 4.0 7.0 0.00 0.13 0.02 77 1014.0
20260831192631 57 262 2.0 11.0 0.00 0.13 0.02 76 1013.9
20260831192130 57 292 4.0 12.0 0.00 0.13 0.02 76 1013.8
20260831191626 57 240 5.0 12.0 0.00 0.13 0.02 75 1013.9
20260831191118 57 234 6.0 14.0 0.00 0.13 0.02 75 1013.8
20260831190106 57 238 10.0 17.0 0.00 0.13 0.02 76 1013.6
20260831185543 58 224 5.0 15.0 0.00 0.13 0.02 76 1013.4
20260831185034 58 237 6.0 9.0 0.00 0.13 0.02 77 1013.3
20260831184534 58 259 5.0 9.0 0.00 0.13 0.02 78 1013.2
20260831184032 58 259 4.0 11.0 0.00 0.13 0.02 77 1013.1
20260831183531 59 238 4.0 12.0 0.00 0.13 0.02 77 1013.1
20260831182533 59 271 5.0 14.0 0.00 0.14 0.02 76 1012.8
20260831182031 60 251 5.0 12.0 0.00 0.14 0.02 74 1012.8
20260831181533 60 259 6.0 16.0 0.00 0.14 0.02 74 1012.7
20260831181030 61 244 6.0 23.0 0.00 0.14 0.02 73 1012.6
20260831180531 61 269 11.0 23.0 0.00 0.14 0.02 72 1012.5
20260831175533 62 293 9.0 20.0 0.00 0.14 0.02 70 1012.4
20260831175030 62 281 11.0 19.0 0.00 0.14 0.02 70 1012.4
20260831174528 63 265 12.0 19.0 0.00 0.14 0.02 70 1012.2
20260831174030 63 278 11.0 18.0 0.00 0.14 0.02 70 1012.1
20260831173529 63 278 11.0 18.0 0.00 0.14 0.02 70 1012.1
20260831172020 63 255 5.0 16.0 0.00 0.14 0.02 71 1011.7
20260831171003 63 243 11.0 18.0 0.00 0.14 0.02 70 1011.7
20260831170504 63 257 12.0 18.0 0.00 0.14 0.02 70 1011.6
20260831165954 64 290 12.0 18.0 0.00 0.14 0.02 70 1011.7
20260831164930 64 224 8.0 18.0 0.00 0.14 0.02 73 1011.4
20260831164435 64 268 11.0 21.0 0.00 0.14 0.02 77 1011.3
20260831163433 64 219 11.0 17.0 0.02 0.15 0.02 77 1011.1
20260831162931 64 259 7.0 14.0 0.02 0.15 0.02 78 1011.1
20260831162431 64 248 5.0 13.0 0.02 0.17 0.02 81 1011.1
20260831161933 64 268 8.0 15.0 0.02 0.24 0.02 81 1011.0
20260831161435 63 293 8.0 15.0 0.02 0.25 0.02 81 1011.0
20260831160931 63 255 6.0 12.0 0.02 0.26 0.02 85 1010.9
20260831154929 63 312 5.0 16.0 0.02 0.26 0.02 82 1010.7
20260831154428 64 234 8.0 17.0 0.02 0.26 0.02 80 1010.7
20260831153930 65 214 8.0 17.0 0.02 0.26 0.02 76 1010.7
20260831153429 66 244 6.0 12.0 0.00 0.24 0.00 74 1010.5
20260831152906 66 227 2.0 12.0 0.00 0.24 0.00 72 1010.3
20260831152403 66 275 4.0 12.0 0.00 0.24 0.00 72 1010.3
20260831151406 66 274 8.0 14.0 0.00 0.24 0.00 71 1010.3
20260831150903 66 238 6.0 17.0 0.00 0.24 0.00 71 1010.3
20260831150405 66 276 8.0 17.0 0.00 0.24 0.00 72 1010.1
20260831145332 66 224 6.0 15.0 0.00 0.24 0.00 72 1010.0
20260831144332 67 221 10.0 16.0 0.00 0.24 0.00 75 1009.8
20260831143832 67 241 9.0 16.0 0.00 0.24 0.00 75 1009.9
20260831143330 66 231 7.0 16.0 0.00 0.24 0.00 77 1009.7
20260831142833 65 220 6.0 16.0 0.00 0.24 0.00 77 1009.7
20260831142333 65 206 11.0 16.0 0.00 0.24 0.00 79 1009.7
20260831141832 65 212 10.0 15.0 0.00 0.24 0.00 79 1009.7
20260831140833 66 244 7.0 16.0 0.00 0.24 0.00 77 1009.7
20260831140332 66 248 6.0 15.0 0.00 0.24 0.00 75 1009.5
20260831135831 66 244 10.0 15.0 0.00 0.24 0.00 78 1009.5
20260831135332 64 285 7.0 15.0 0.00 0.24 0.00 76 1009.5
20260831133833 66 288 11.0 22.0 0.00 0.24 0.00 72 1009.2
20260831132830 66 289 6.0 18.0 0.00 0.24 0.00 72 1008.9
20260831132333 66 278 9.0 18.0 0.00 0.24 0.00 72 1008.9
20260831131831 66 250 8.0 15.0 0.00 0.24 0.00 71 1008.9
20260831130833 67 268 4.0 11.0 0.00 0.24 0.00 72 1008.8
20260831130336 66 283 5.0 11.0 0.00 0.24 0.00 71 1008.8
20260831125331 66 252 3.0 14.0 0.00 0.24 0.00 72 1008.7
20260831124832 65 330 7.0 14.0 0.00 0.24 0.00 72 1008.7
20260831123832 65 279 6.0 15.0 0.00 0.24 0.00 72 1008.6
20260831123331 66 290 10.0 15.0 0.00 0.24 0.00 71 1008.5
20260831122831 66 306 7.0 15.0 0.00 0.24 0.00 73 1008.6
20260831122331 65 286 5.0 15.0 0.00 0.24 0.00 72 1008.5
20260831121831 65 247 7.0 14.0 0.00 0.24 0.00 73 1008.4
20260831121332 65 282 6.0 14.0 0.00 0.24 0.00 73 1008.3
20260831120831 65 299 7.0 15.0 0.00 0.24 0.00 72 1008.4
20260831120333 65 271 8.0 18.0 0.00 0.24 0.00 73 1008.3
20260831115831 66 282 7.0 18.0 0.00 0.24 0.00 73 1008.1
20260831115332 66 245 6.0 14.0 0.00 0.24 0.00 74 1008.0
20260831114831 66 220 7.0 13.0 0.00 0.24 0.00 76 1008.0
20260831114331 66 307 7.0 14.0 0.00 0.24 0.00 76 1007.9
20260831113830 66 306 5.0 14.0 0.00 0.24 0.00 78 1007.8
20260831113331 66 296 8.0 13.0 0.00 0.24 0.00 78 1007.8
20260831112831 66 309 5.0 11.0 0.00 0.24 0.00 78 1007.7
20260831112331 64 279 6.0 11.0 0.00 0.24 0.00 80 1007.7
20260831111832 64 282 6.0 13.0 0.00 0.24 0.00 81 1007.6
20260831111330 64 317 6.0 13.0 0.00 0.24 0.00 84 1007.6
20260831110831 64 274 5.0 13.0 0.00 0.24 0.00 84 1007.5
20260831110331 62 254 5.0 12.0 0.00 0.24 0.00 83 1007.5
20260831104829 63 228 7.0 13.0 0.00 0.24 0.00 83 1007.3
20260831104331 63 272 3.0 9.0 0.00 0.24 0.00 82 1007.2
20260831103832 64 234 5.0 9.0 0.00 0.24 0.00 82 1007.1
20260831102831 64 275 5.0 9.0 0.00 0.24 0.00 81 1007.0
20260831102332 63 238 3.0 9.0 0.00 0.24 0.00 84 1007.0
20260831101829 62 259 6.0 9.0 0.00 0.24 0.00 87 1007.0
20260831101332 61 309 5.0 11.0 0.00 0.24 0.00 86 1007.0
20260831100831 62 321 4.0 11.0 0.00 0.24 0.00 85 1006.9
20260831100330 62 286 3.0 11.0 0.00 0.24 0.00 85 1007.1
20260831095836 62 298 5.0 11.0 0.00 0.24 0.00 86 1007.0
20260831095331 62 283 4.0 12.0 0.00 0.24 0.00 86 1006.9
20260831094831 62 289 5.0 12.0 0.00 0.24 0.00 86 1006.9
20260831093829 61 266 3.0 11.0 0.00 0.24 0.00 90 1006.9
20260831093331 60 252 6.0 9.0 0.00 0.24 0.00 92 1006.8
20260831092832 59 252 5.0 8.0 0.00 0.24 0.00 92 1006.7
20260831091832 58 286 5.0 8.0 0.00 0.24 0.00 94 1006.6
20260831091331 58 233 2.0 9.0 0.00 0.24 0.00 94 1006.5
20260831090830 58 276 5.0 9.0 0.00 0.24 0.00 94 1006.6
20260831090329 58 226 4.0 8.0 0.00 0.24 0.00 94 1006.5
20260831085831 57 262 4.0 9.0 0.00 0.24 0.00 95 1006.3
20260831085329 57 224 4.0 9.0 0.00 0.24 0.00 95 1006.3
20260831084829 56 252 6.0 9.0 0.00 0.24 0.00 95 1006.2
20260831084330 56 243 4.0 7.0 0.00 0.24 0.00 95 1006.1
20260831083830 56 244 5.0 8.0 0.00 0.24 0.00 95 1006.0
20260831083330 56 266 3.0 8.0 0.00 0.24 0.00 95 1005.9
20260831082831 56 266 4.0 8.0 0.00 0.24 0.00 96 1005.8
20260831082330 55 248 4.0 8.0 0.00 0.24 0.00 96 1005.7
20260831081331 55 243 5.0 9.0 0.00 0.24 0.00 97 1005.7
20260831080806 55 248 4.0 9.0 0.00 0.24 0.00 97 1005.4
20260831080305 55 244 5.0 9.0 0.00 0.24 0.00 97 1005.3
20260831075804 55 220 4.0 9.0 0.00 0.24 0.00 97 1005.3
20260831075306 54 247 3.0 8.0 0.00 0.24 0.00 97 1005.2
20260831074757 54 237 5.0 8.0 0.00 0.24 0.00 97 1005.2
20260831074252 54 202 3.0 9.0 0.00 0.25 0.00 97 1005.2
20260831073731 54 217 5.0 12.0 0.00 0.25 0.00 97 1005.1
20260831072734 54 221 5.0 9.0 0.00 0.25 0.00 98 1005.0
20260831072232 54 282 5.0 11.0 0.00 0.25 0.00 98 1004.8
20260831071740 54 209 5.0 11.0 0.00 0.25 0.00 98 1004.7
20260831071230 54 251 4.0 8.0 0.00 0.25 0.00 98 1004.7
20260831070233 54 234 5.0 12.0 0.00 0.25 0.00 98 1004.5
20260831065732 54 243 6.0 12.0 0.00 0.25 0.00 98 1004.5
20260831065231 54 234 4.0 8.0 0.00 0.25 0.00 98 1004.5
20260831064717 54 281 3.0 8.0 0.00 0.25 0.00 98 1004.4
20260831063707 54 252 3.0 7.0 0.00 0.25 0.00 98 1004.2
20260831063205 53 255 3.0 7.0 0.00 0.25 0.00 98 1004.1
20260831062708 53 272 3.0 7.0 0.00 0.25 0.00 98 1004.1
20260831060705 53 245 2.0 6.0 0.00 0.25 0.00 98 1003.9
20260831055651 53 255 2.0 7.0 0.00 0.25 0.00 98 1003.7
20260831055144 53 227 3.0 7.0 0.00 0.25 0.00 98 1003.6
20260831054130 53 245 3.0 7.0 0.00 0.25 0.00 98 1003.6
20260831053130 53 258 3.0 7.0 0.00 0.25 0.00 98 1003.5
20260831052608 53 238 2.0 7.0 0.00 0.25 0.00 98 1003.4
20260831052105 53 295 2.0 6.0 0.00 0.25 0.00 98 1003.3
20260831051606 53 265 2.0 6.0 0.00 0.25 0.00 98 1003.3
20260831050605 53 250 2.0 6.0 0.00 0.25 0.00 98 1003.2
20260831050108 53 266 4.0 6.0 0.00 0.25 0.00 98 1003.1
20260831045605 53 257 3.0 8.0 0.00 0.25 0.00 98 1003.2
20260831044530 53 272 3.0 7.0 0.00 0.25 0.00 98 1003.0
20260831044032 53 252 4.0 7.0 0.00 0.25 0.00 98 1003.0
20260831043529 53 252 5.0 7.0 0.00 0.25 0.00 98 1003.0
20260831042531 53 250 3.0 7.0 0.00 0.25 0.00 98 1003.0
20260831041528 52 252 3.0 7.0 0.00 0.25 0.00 97 1002.9
20260831040532 52 274 4.0 7.0 0.00 0.25 0.00 97 1002.9
20260831040029 52 262 4.0 7.0 0.00 0.25 0.00 97 1002.9
20260831035530 52 251 4.0 7.0 0.00 0.25 0.00 97 1002.8
20260831034529 52 258 2.0 6.0 0.00 0.25 0.00 97 1002.6
20260831034031 52 227 2.0 6.0 0.00 0.25 0.00 97 1002.6
20260831033528 52 226 3.0 6.0 0.00 0.25 0.00 96 1002.6
20260831033029 52 240 3.0 7.0 0.00 0.25 0.00 96 1002.6
20260831032530 52 247 3.0 7.0 0.00 0.25 0.00 96 1002.5
20260831032030 52 259 3.0 6.0 0.00 0.25 0.00 96 1002.5
20260831031530 52 272 2.0 7.0 0.00 0.25 0.00 96 1002.5
20260831031048 52 269 4.0 7.0 0.00 0.25 0.00 96 1002.4
20260831030529 53 261 3.0 7.0 0.00 0.25 0.00 96 1002.4
20260831030031 53 271 3.0 7.0 0.00 0.25 0.00 96 1002.3
20260831025531 53 271 3.0 8.0 0.00 0.25 0.00 96 1002.5
20260831025029 53 204 4.0 8.0 0.00 0.25 0.00 96 1002.3
20260831024530 53 223 5.0 8.0 0.00 0.25 0.00 96 1002.3
20260831024033 53 243 2.0 7.0 0.00 0.25 0.00 96 1002.3
20260831023530 53 262 3.0 8.0 0.00 0.25 0.00 96 1002.3
20260831023029 54 258 4.0 8.0 0.00 0.25 0.00 96 1002.3
20260831022530 54 227 3.0 7.0 0.00 0.25 0.00 96 1002.2
20260831022031 53 207 4.0 7.0 0.00 0.25 0.00 96 1002.1
20260831021528 54 209 2.0 7.0 0.00 0.25 0.00 96 1002.2
20260831021031 54 257 2.0 7.0 0.00 0.25 0.00 96 1002.3
20260831020529 53 212 4.0 9.0 0.00 0.25 0.00 96 1002.2
20260831020034 53 214 4.0 9.0 0.00 0.25 0.00 95 1002.2
20260831015532 53 247 2.0 5.0 0.00 0.25 0.00 95 1002.2
20260831015031 53 247 2.0 6.0 0.00 0.25 0.00 95 1002.2
20260831014532 54 247 2.0 6.0 0.00 0.25 0.00 95 1002.1
20260831014031 54 247 2.0 6.0 0.00 0.25 0.00 95 1002.0
20260831013530 54 247 2.0 6.0 0.00 0.25 0.00 95 1002.1
20260831013032 54 247 2.0 6.0 0.00 0.25 0.00 95 1002.1
20260831012530 54 247 3.0 5.0 0.00 0.25 0.00 95 1002.2
20260831011530 54 247 2.0 5.0 0.00 0.25 0.00 95 1002.2
20260831011031 55 258 2.0 5.0 0.00 0.25 0.00 94 1002.2
20260831005529 55 237 2.0 6.0 0.00 0.25 0.00 94 1002.2
20260831004530 55 258 2.0 6.0 0.00 0.25 0.00 94 1002.2
20260831004031 56 234 1.0 6.0 0.00 0.25 0.00 95 1002.2
20260831003529 56 234 2.0 6.0 0.00 0.25 0.00 95 1002.2
20260831003031 56 213 2.0 7.0 0.00 0.25 0.00 95 1002.2
20260831002529 56 175 3.0 7.0 0.00 0.25 0.00 95 1002.2
20260831002030 56 162 4.0 9.0 0.00 0.25 0.00 95 1002.4
20260831001030 56 214 3.0 9.0 0.00 0.25 0.00 95 1002.5
20260830235530 56 217 5.0 11.0 0.00 0.25 0.00 95 1002.6
20260830235033 56 189 4.0 11.0 0.00 0.25 0.00 95 1002.7
20260830234512 56 186 4.0 7.0 0.00 0.25 0.00 95 1002.7
20260830234004 56 199 2.0 6.0 0.00 0.25 0.00 95 1002.8
20260830233504 56 224 2.0 8.0 0.00 0.25 0.00 95 1002.9
20260830233006 56 172 1.0 9.0 0.00 0.25 0.00 95 1002.8
20260830232505 56 141 4.0 9.0 0.00 0.25 0.00 95 1002.8
20260830232009 56 144 4.0 7.0 0.00 0.25 0.00 95 1002.8
20260830231004 56 121 3.0 7.0 0.00 0.25 0.00 95 1002.8
20260830230506 56 161 2.0 6.0 0.00 0.25 0.00 95 1002.9
20260830230004 56 157 2.0 9.0 0.00 0.25 0.00 95 1002.9
20260830225505 56 166 3.0 9.0 0.00 0.25 0.25 95 1003.0
20260830225007 56 221 3.0 7.0 0.00 0.25 0.25 95 1002.9
20260830224505 56 195 2.0 6.0 0.00 0.25 0.25 95 1003.0
20260830224004 56 195 1.0 7.0 0.00 0.25 0.25 95 1003.0
20260830222935 56 186 2.0 7.0 0.00 0.25 0.25 95 1002.9
20260830222431 56 193 1.0 5.0 0.00 0.25 0.25 95 1003.0
20260830221932 56 217 1.0 5.0 0.00 0.25 0.25 95 1003.1
20260830221429 56 196 2.0 5.0 0.00 0.25 0.25 95 1003.1
20260830220928 56 145 1.0 3.0 0.00 0.25 0.25 94 1003.1
20260830220426 56 114 1.0 5.0 0.00 0.25 0.25 94 1003.1
20260830214907 56 281 1.0 3.0 0.00 0.25 0.25 94 1003.1
20260830214405 56 281 0.0 2.0 0.00 0.25 0.25 94 1003.1
20260830213403 56 281 0.0 2.0 0.01 0.25 0.25 94 1003.2